Location: Audrecelles
(50.8240°N, 1.5923°E)
Time: 02:34:35
(UTC+00:00)

Cosmos 44 - Pass Details

Date: 17 October 2025
Orbit: 576 x 774 km, 65.1° (Epoch: 13 November)

Event Time Altitude Azimuth Distance (km) Brightness Sun altitude
Exits shadow 05:27:39 - 318° (NW) 2,902 6.1 -9.0°
Reaches altitude 10° 05:29:27 10° 318° (NW) 2,202 5.5 -8.7°
Maximum altitude 05:34:31 80° 232° (SW) 758 3.4 -7.9°
Drops below altitude 10° 05:39:47 10° 146° (SE) 2,290 6.6 -7.1°
Sets 05:42:13 0° 146° (SE) 3,226 7.4 -6.7°
